[[{"header":{"parameterUnit":"m.s-1","parameterCategory":1,"la1":30.2992,"la2":30.254,"lo1":-89.0895,"lo2":-89.0443,"dy":0.0025,"dx":0.0025,"nx":19,"ny":19,"refTime":"2026-03-16T21:00:00:Z","depth":0,"parameterNumber":2,"parameterNumberName":"U-component_of_WINDS"},"data":[0,0,0,4.621,4.6212,4.6302,4.6302,4.6427,4.6429,0,0,0,0,0,0,0,0,0,0,0,4.619,4.6191,4.621,4.6213,4.6302,4.6302,4.6427,4.6429,0,0,0,0,0,0,0,0,0,0,0,4.619,4.6191,4.6192,4.6213,4.6302,4.6302,4.6427,4.6356,0,0,0,0,0,0,0,0,0,0,4.6267,4.6254,4.619,4.6192,4.6214,4.6302,4.6302,4.6352,4.636,4.6391,0,4.6421,0,4.6427,4.6438,4.6438,0,0,0,4.6208,4.6247,4.6266,4.6192,4.6215,4.6302,4.626,4.6356,4.6365,4.6402,4.6422,4.6427,4.6429,4.6438,4.6439,4.6638,4.6639,0,0,4.6203,4.6209,4.626,4.6272,4.6259,4.6258,4.6263,4.6362,4.6384,4.6423,4.6429,4.6431,4.6439,4.644,4.6636,4.6638,0,0,0,4.6192,4.6206,4.6222,4.6267,4.6283,4.626,4.6267,4.638,4.6384,4.6431,4.6432,4.644,4.6442,4.6635,4.6637,4.6701,0,0,0,4.6189,4.6199,4.622,4.6225,4.6281,4.6332,4.6283,4.6378,4.6389,4.6432,4.644,4.6443,4.6634,4.6636,4.6696,4.6729,0,0,0,4.6182,4.6198,4.6214,4.6225,4.6264,4.633,4.6341,4.638,4.639,4.6438,4.6444,4.6633,4.6636,4.6692,4.6722,4.6784,0,0,0,4.6176,4.6267,4.6215,4.6317,4.6263,4.6369,4.634,4.6419,4.6468,4.6441,4.6634,4.6637,4.6691,4.6718,4.678,4.6837,4.6861,0,0,4.6294,4.6282,4.6342,4.6298,4.6415,4.6355,4.6482,4.652,4.6519,4.6598,4.6603,4.6697,4.6722,4.6783,4.6996,4.7016,0,0,0,4.6381,4.6425,4.6454,4.6502,4.6535,4.6566,4.6585,4.66,4.6667,4.6561,4.6736,4.6751,4.6786,4.6813,4.683,4.686,4.665,4.6649,4.6649,4.6556,4.6551,4.6651,4.6658,4.6705,4.6725,4.6763,4.6786,4.6765,4.6808,4.683,4.696,4.6992,4.7005,4.7037,4.686,4.6861,4.6861,4.6861,4.6729,4.679,4.6764,4.6851,4.6846,4.6919,4.6944,4.6927,4.6995,4.6942,4.6973,4.6915,4.7026,4.7054,4.6866,4.6865,4.6864,4.6864,4.6864,4.6842,4.6871,4.6889,4.696,4.7015,4.7019,4.7087,4.7079,4.7072,4.7103,4.7128,4.7127,4.7125,4.7116,4.7116,4.7117,4.7117,4.7117,4.7118,4.6953,4.6971,4.7029,4.7075,4.7106,4.7146,4.717,4.7201,4.7233,4.7222,4.7222,4.7199,4.7038,4.6998,4.7125,4.7123,4.7123,4.7122,4.7121,4.7129,4.7089,4.7178,4.721,4.7264,4.7321,4.7312,4.7376,4.74,4.7434,4.7406,4.7288,4.7274,4.7261,4.7227,4.7406,4.7406,4.7406,4.7406,4.7225,4.7218,4.7309,4.7361,4.7411,4.7413,4.7516,4.7537,4.7552,4.7567,4.754,4.7496,4.7483,4.7476,4.7459,4.7427,4.7653,4.7653,4.7653,4.7334,4.7332,4.742,4.7435,4.7478,4.7515,4.7612,4.7674,4.7682,4.7663,4.7579,4.7569,4.7497,4.7473,4.745,4.7423,4.7365,0,0]},{"header":{"parameterUnit":"m.s-1","parameterCategory":1,"la1":30.2992,"la2":30.254,"lo1":-89.0895,"lo2":-89.0443,"dy":0.0025,"dx":0.0025,"nx":19,"ny":19,"refTime":"2026-03-16T21:00:00:Z","depth":0,"parameterNumber":3,"parameterNumberName":"V-component_of_WINDS"},"data":[0,0,0,-10.3203,-10.3211,-10.3564,-10.3566,-10.4019,-10.4023,0,0,0,0,0,0,0,0,0,0,0,-10.3102,-10.3105,-10.3202,-10.3211,-10.3564,-10.3566,-10.4018,-10.4023,0,0,0,0,0,0,0,0,0,0,0,-10.31,-10.3104,-10.3108,-10.3213,-10.3564,-10.3566,-10.4017,-10.3749,0,0,0,0,0,0,0,0,0,0,-10.3406,-10.3317,-10.3103,-10.3108,-10.3215,-10.3563,-10.3566,-10.3736,-10.3766,-10.3861,0,-10.3948,0,-10.3993,-10.4054,-10.4055,0,0,0,-10.3208,-10.3292,-10.3384,-10.3109,-10.3218,-10.3563,-10.3404,-10.3753,-10.3787,-10.39,-10.3954,-10.3971,-10.4,-10.4057,-10.4059,-10.4624,-10.4626,0,0,-10.3188,-10.3166,-10.3361,-10.3406,-10.3355,-10.3393,-10.3415,-10.3773,-10.383,-10.3956,-10.3981,-10.4008,-10.406,-10.4063,-10.4621,-10.4624,0,0,0,-10.3135,-10.3153,-10.3237,-10.3388,-10.3452,-10.3403,-10.3429,-10.3814,-10.3843,-10.3986,-10.4013,-10.4062,-10.4068,-10.4618,-10.4622,-10.4743,0,0,0,-10.3123,-10.3122,-10.3228,-10.3218,-10.3445,-10.3638,-10.3461,-10.3818,-10.3859,-10.4011,-10.4063,-10.4072,-10.4615,-10.462,-10.4733,-10.4803,0,0,0,-10.3077,-10.3116,-10.3169,-10.3216,-10.3368,-10.3632,-10.3682,-10.3828,-10.3876,-10.4056,-10.4074,-10.4613,-10.4619,-10.4724,-10.4788,-10.4947,0,0,0,-10.3022,-10.3267,-10.317,-10.3455,-10.3365,-10.3705,-10.368,-10.3933,-10.4101,-10.4065,-10.4616,-10.4622,-10.4721,-10.4779,-10.4937,-10.5078,-10.5134,0,0,-10.3319,-10.3302,-10.3472,-10.3396,-10.3748,-10.3652,-10.4022,-10.4194,-10.4229,-10.4489,-10.4504,-10.4736,-10.4787,-10.4945,-10.5455,-10.5499,0,0,0,-10.3559,-10.3681,-10.3779,-10.394,-10.408,-10.4207,-10.4325,-10.439,-10.4613,-10.436,-10.4836,-10.4867,-10.4961,-10.5029,-10.5067,-10.5149,-10.4652,-10.4651,-10.4651,-10.3947,-10.3983,-10.4267,-10.4346,-10.4502,-10.4625,-10.4755,-10.4862,-10.4847,-10.496,-10.5038,-10.5343,-10.5422,-10.5451,-10.5536,-10.5114,-10.5114,-10.5115,-10.5115,-10.4388,-10.4566,-10.4547,-10.4816,-10.4851,-10.5075,-10.5203,-10.5187,-10.54,-10.5287,-10.5371,-10.5244,-10.5499,-10.5575,-10.5124,-10.5123,-10.5122,-10.5121,-10.512,-10.4647,-10.4739,-10.4816,-10.5056,-10.5236,-10.5306,-10.5514,-10.5537,-10.556,-10.5643,-10.5729,-10.5727,-10.5729,-10.5683,-10.5684,-10.5685,-10.5686,-10.5686,-10.5687,-10.4886,-10.4969,-10.5143,-10.5316,-10.5425,-10.557,-10.5697,-10.5804,-10.5928,-10.5928,-10.5929,-10.5905,-10.5517,-10.542,-10.5704,-10.5701,-10.5699,-10.5697,-10.5696,-10.5321,-10.5228,-10.5496,-10.5606,-10.5811,-10.599,-10.6018,-10.6234,-10.6325,-10.6427,-10.6387,-10.6096,-10.6079,-10.6049,-10.5969,-10.6378,-10.6378,-10.6378,-10.6378,-10.5541,-10.5536,-10.5818,-10.5991,-10.6163,-10.6218,-10.652,-10.6622,-10.6712,-10.6771,-10.6715,-10.661,-10.6578,-10.658,-10.6539,-10.6464,-10.699,-10.6991,-10.6991,-10.5811,-10.5825,-10.6078,-10.6168,-10.6332,-10.6472,-10.6757,-10.6956,-10.7037,-10.7017,-10.6817,-10.6792,-10.6623,-10.6566,-10.6539,-10.6474,-10.6338,0,0]}]]